| time (UTC) | temp F | wind direction | speed knots | gust knots | rain 1hr in | rain 24hr in | rain mn in | humidity % | barometer mb |
| 20260905083503 | 50 | 66 | 1.7 | 5.2 | 0.00 | 0.20 | 0.00 | 84 | 994.0 |
| 20260905082503 | 50 | 7 | 0.9 | 2.6 | 0.00 | 0.20 | 0.00 | 86 | 994.0 |
| 20260905082004 | 50 | 329 | 0.0 | 2.6 | 0.00 | 0.20 | 0.00 | 85 | 994.0 |
| 20260905081504 | 50 | 337 | 1.7 | 4.3 | 0.00 | 0.20 | 0.00 | 86 | 994.0 |
| 20260905080504 | 50 | 7 | 0.9 | 4.3 | 0.00 | 0.20 | 0.00 | 87 | 994.0 |
| 20260905080004 | 49 | 329 | 2.6 | 6.1 | 0.00 | 0.20 | 0.00 | 87 | 993.9 |
| 20260905075504 | 50 | 15 | 1.7 | 6.1 | 0.00 | 0.20 | 0.00 | 88 | 993.9 |
| 20260905074504 | 50 | 24 | 0.9 | 2.6 | 0.00 | 0.20 | 0.00 | 89 | 993.9 |
| 20260905074003 | 50 | 359 | 0.9 | 4.3 | 0.00 | 0.20 | 0.00 | 88 | 993.8 |
| 20260905073504 | 50 | 355 | 0.9 | 4.3 | 0.00 | 0.20 | 0.00 | 88 | 993.7 |
| 20260905073003 | 49 | 340 | 1.7 | 5.2 | 0.00 | 0.20 | 0.00 | 88 | 993.8 |
| 20260905072004 | 49 | 40 | 1.7 | 2.6 | 0.00 | 0.20 | 0.00 | 88 | 993.7 |
| 20260905071003 | 49 | 328 | 1.7 | 4.3 | 0.00 | 0.20 | 0.00 | 88 | 993.6 |
| 20260905070004 | 49 | 338 | 0.9 | 2.6 | 0.00 | 0.20 | 0.00 | 89 | 993.6 |
| 20260905065004 | 49 | 329 | 0.9 | 7.0 | 0.00 | 0.20 | 0.00 | 88 | 993.5 |
| 20260905064504 | 49 | 41 | 2.6 | 7.8 | 0.00 | 0.20 | 0.00 | 89 | 993.4 |
| 20260905064003 | 49 | 344 | 0.9 | 4.3 | 0.00 | 0.20 | 0.00 | 89 | 993.4 |
| 20260905063004 | 49 | 61 | 0.0 | 0.0 | 0.00 | 0.20 | 0.00 | 89 | 993.4 |
| 20260905062503 | 49 | 61 | 0.9 | 2.6 | 0.00 | 0.20 | 0.00 | 89 | 993.4 |
| 20260905062004 | 49 | 27 | 0.0 | 1.7 | 0.00 | 0.20 | 0.00 | 89 | 993.3 |
| 20260905061504 | 49 | 29 | 0.0 | 2.6 | 0.00 | 0.20 | 0.00 | 90 | 993.3 |
| 20260905061004 | 49 | 26 | 0.0 | 0.0 | 0.00 | 0.20 | 0.00 | 90 | 993.3 |
| 20260905060506 | 49 | 348 | 0.9 | 2.6 | 0.00 | 0.20 | 0.00 | 90 | 993.1 |
| 20260905060003 | 49 | 354 | 0.9 | 7.8 | 0.00 | 0.20 | 0.00 | 90 | 993.2 |
| 20260905055506 | 49 | 333 | 0.0 | 7.8 | 0.00 | 0.20 | 0.00 | 90 | 993.2 |
| 20260905055004 | 49 | 9 | 0.9 | 2.6 | 0.00 | 0.20 | 0.00 | 90 | 993.1 |
| 20260905054504 | 49 | 27 | 0.9 | 2.6 | 0.00 | 0.20 | 0.00 | 90 | 993.1 |
| 20260905054004 | 49 | 7 | 0.0 | 2.6 | 0.00 | 0.20 | 0.00 | 89 | 993.1 |
| 20260905053504 | 49 | 347 | 0.9 | 2.6 | 0.00 | 0.20 | 0.00 | 89 | 993.0 |
| 20260905053004 | 49 | 348 | 0.0 | 0.0 | 0.00 | 0.20 | 0.00 | 89 | 993.0 |
| 20260905052503 | 49 | 348 | 0.0 | 2.6 | 0.00 | 0.20 | 0.00 | 89 | 993.0 |
| 20260905051503 | 49 | 348 | 0.0 | 2.6 | 0.00 | 0.20 | 0.00 | 89 | 993.0 |
| 20260905051004 | 49 | 348 | 0.0 | 2.6 | 0.00 | 0.20 | 0.00 | 89 | 993.0 |
| 20260905050504 | 49 | 355 | 1.7 | 2.6 | 0.00 | 0.20 | 0.00 | 89 | 992.9 |
| 20260905050004 | 49 | 352 | 0.9 | 2.6 | 0.00 | 0.20 | 0.00 | 89 | 992.9 |
| 20260905045004 | 49 | 327 | 0.9 | 2.6 | 0.00 | 0.20 | 0.00 | 90 | 992.9 |
| 20260905044504 | 49 | 321 | 0.0 | 2.6 | 0.00 | 0.20 | 0.00 | 90 | 992.9 |
| 20260905044004 | 49 | 322 | 1.7 | 4.3 | 0.00 | 0.20 | 0.00 | 90 | 992.9 |
| 20260905043504 | 49 | 336 | 1.7 | 4.3 | 0.00 | 0.20 | 0.00 | 90 | 992.8 |
| 20260905043004 | 49 | 344 | 1.7 | 4.3 | 0.00 | 0.20 | 0.00 | 90 | 992.8 |
| 20260905042004 | 49 | 351 | 0.0 | 0.0 | 0.00 | 0.20 | 0.00 | 90 | 992.7 |
| 20260905041504 | 49 | 351 | 0.0 | 0.0 | 0.00 | 0.20 | 0.00 | 90 | 992.7 |
| 20260905041005 | 49 | 351 | 0.0 | 0.0 | 0.00 | 0.20 | 0.00 | 90 | 992.7 |
| 20260905040504 | 49 | 351 | 0.0 | 0.0 | 0.00 | 0.20 | 0.00 | 90 | 992.7 |
| 20260905040004 | 49 | 350 | 0.0 | 0.0 | 0.00 | 0.20 | 0.00 | 90 | 992.7 |
| 20260905035505 | 49 | 350 | 0.0 | 0.9 | 0.00 | 0.20 | 0.00 | 90 | 992.7 |
| 20260905034503 | 49 | 12 | 0.0 | 0.0 | 0.00 | 0.20 | 0.00 | 90 | 992.6 |
| 20260905033004 | 49 | 12 | 0.0 | 0.9 | 0.00 | 0.20 | 0.00 | 90 | 992.5 |
| 20260905032505 | 49 | 12 | 0.0 | 0.0 | 0.00 | 0.20 | 0.00 | 90 | 992.5 |
| 20260905032004 | 49 | 12 | 0.0 | 4.3 | 0.00 | 0.20 | 0.00 | 90 | 992.5 |
| 20260905031004 | 49 | 32 | 0.0 | 0.0 | 0.00 | 0.20 | 0.00 | 90 | 992.4 |
| 20260905030003 | 50 | 32 | 0.0 | 0.0 | 0.00 | 0.20 | 0.00 | 90 | 992.5 |
| 20260905025504 | 50 | 32 | 0.0 | 0.0 | 0.00 | 0.20 | 0.00 | 90 | 992.4 |
| 20260905025004 | 50 | 32 | 0.0 | 0.0 | 0.00 | 0.20 | 0.00 | 90 | 992.4 |
| 20260905024004 | 50 | 34 | 0.0 | 0.0 | 0.00 | 0.20 | 0.00 | 90 | 992.5 |
| 20260905023504 | 50 | 34 | 0.0 | 0.0 | 0.00 | 0.20 | 0.00 | 90 | 992.4 |
| 20260905023004 | 50 | 34 | 0.0 | 0.0 | 0.00 | 0.20 | 0.00 | 90 | 992.4 |
| 20260905022504 | 50 | 34 | 0.0 | 0.0 | 0.00 | 0.20 | 0.00 | 90 | 992.4 |
| 20260905022004 | 50 | 34 | 0.0 | 0.0 | 0.00 | 0.20 | 0.00 | 90 | 992.4 |
| 20260905021504 | 50 | 34 | 0.0 | 0.0 | 0.00 | 0.20 | 0.00 | 90 | 992.4 |
| 20260905021004 | 50 | 34 | 0.0 | 1.7 | 0.00 | 0.20 | 0.00 | 90 | 992.4 |
| 20260905020504 | 50 | 34 | 0.9 | 2.6 | 0.00 | 0.20 | 0.00 | 90 | 992.4 |
| 20260905020004 | 50 | 34 | 0.9 | 2.6 | 0.00 | 0.20 | 0.00 | 90 | 992.3 |
| 20260905015504 | 50 | 35 | 0.9 | 1.7 | 0.00 | 0.20 | 0.00 | 90 | 992.3 |
| 20260905015004 | 50 | 35 | 0.9 | 2.6 | 0.00 | 0.20 | 0.00 | 90 | 992.3 |
| 20260905014503 | 50 | 36 | 0.0 | 2.6 | 0.00 | 0.20 | 0.00 | 89 | 992.3 |
| 20260905014004 | 50 | 36 | 0.0 | 2.6 | 0.00 | 0.20 | 0.00 | 89 | 992.3 |
| 20260905012504 | 50 | 42 | 0.0 | 1.7 | 0.00 | 0.20 | 0.00 | 89 | 992.1 |
| 20260905012004 | 50 | 42 | 0.0 | 0.0 | 0.00 | 0.20 | 0.00 | 89 | 992.1 |
| 20260905011504 | 50 | 42 | 0.0 | 0.0 | 0.00 | 0.20 | 0.00 | 89 | 992.1 |
| 20260905011003 | 50 | 42 | 0.0 | 0.0 | 0.00 | 0.20 | 0.00 | 89 | 992.1 |
| 20260905010004 | 50 | 42 | 0.0 | 0.9 | 0.00 | 0.20 | 0.00 | 89 | 992.1 |
| 20260905005503 | 50 | 42 | 0.9 | 2.6 | 0.00 | 0.20 | 0.00 | 91 | 992.1 |
| 20260905005004 | 50 | 42 | 0.0 | 0.0 | 0.00 | 0.20 | 0.00 | 92 | 992.1 |
| 20260905004004 | 50 | 42 | 0.0 | 0.0 | 0.00 | 0.20 | 0.00 | 89 | 992.0 |
| 20260905003504 | 50 | 42 | 0.0 | 0.0 | 0.00 | 0.20 | 0.00 | 89 | 992.0 |
| 20260905002504 | 50 | 42 | 0.9 | 2.6 | 0.00 | 0.20 | 0.00 | 91 | 992.0 |
| 20260905002004 | 50 | 42 | 0.0 | 0.9 | 0.00 | 0.20 | 0.00 | 92 | 992.0 |
| 20260905001505 | 50 | 42 | 0.0 | 0.0 | 0.00 | 0.20 | 0.00 | 88 | 992.1 |
| 20260905001003 | 50 | 42 | 0.0 | 0.0 | 0.00 | 0.20 | 0.00 | 88 | 992.1 |
| 20260905000504 | 50 | 42 | 0.0 | 0.0 | 0.00 | 0.20 | 0.00 | 88 | 992.1 |
| 20260904235004 | 50 | 42 | 0.0 | 0.0 | 0.00 | 0.20 | 0.00 | 88 | 992.2 |
| 20260904234504 | 50 | 42 | 0.0 | 0.0 | 0.00 | 0.20 | 0.00 | 88 | 992.3 |
| 20260904234003 | 50 | 42 | 0.0 | 0.0 | 0.00 | 0.20 | 0.00 | 88 | 992.3 |
| 20260904233504 | 50 | 42 | 0.0 | 0.0 | 0.00 | 0.20 | 0.00 | 88 | 992.3 |
| 20260904233004 | 50 | 42 | 0.0 | 0.0 | 0.00 | 0.20 | 0.00 | 88 | 992.3 |
| 20260904232504 | 50 | 42 | 0.0 | 0.0 | 0.00 | 0.20 | 0.00 | 89 | 992.2 |
| 20260904232004 | 51 | 42 | 0.0 | 0.0 | 0.00 | 0.20 | 0.00 | 89 | 992.3 |
| 20260904231504 | 51 | 42 | 0.0 | 0.0 | 0.00 | 0.20 | 0.00 | 89 | 992.3 |
| 20260904230504 | 51 | 43 | 0.0 | 0.0 | 0.00 | 0.20 | 0.00 | 89 | 992.3 |
| 20260904230004 | 51 | 43 | 0.0 | 0.9 | 0.00 | 0.20 | 0.00 | 89 | 992.3 |
| 20260904225504 | 51 | 43 | 0.0 | 0.0 | 0.00 | 0.20 | 0.00 | 89 | 992.3 |
| 20260904224504 | 51 | 43 | 0.0 | 0.0 | 0.00 | 0.20 | 0.00 | 89 | 992.3 |
| 20260904224003 | 51 | 43 | 0.0 | 0.0 | 0.00 | 0.20 | 0.00 | 89 | 992.3 |
| 20260904223504 | 51 | 43 | 0.0 | 0.0 | 0.00 | 0.20 | 0.00 | 89 | 992.4 |
| 20260904223004 | 51 | 43 | 0.0 | 0.0 | 0.00 | 0.20 | 0.00 | 89 | 992.4 |
| 20260904222504 | 51 | 43 | 0.0 | 1.7 | 0.00 | 0.20 | 0.00 | 88 | 992.4 |
| 20260904222004 | 51 | 43 | 0.0 | 1.7 | 0.00 | 0.20 | 0.00 | 88 | 992.4 |
| 20260904221504 | 51 | 43 | 0.0 | 0.9 | 0.00 | 0.20 | 0.00 | 88 | 992.5 |
| 20260904221004 | 51 | 43 | 0.0 | 2.6 | 0.00 | 0.20 | 0.00 | 88 | 992.5 |
| 20260904220504 | 51 | 43 | 0.0 | 1.7 | 0.00 | 0.20 | 0.00 | 88 | 992.5 |
| 20260904220004 | 51 | 43 | 0.0 | 0.0 | 0.00 | 0.20 | 0.00 | 88 | 992.5 |
| 20260904215503 | 51 | 43 | 0.0 | 0.0 | 0.00 | 0.20 | 0.20 | 88 | 992.5 |
| 20260904215004 | 51 | 43 | 0.0 | 0.9 | 0.00 | 0.20 | 0.20 | 88 | 992.5 |
| 20260904214003 | 51 | 43 | 0.0 | 0.0 | 0.00 | 0.20 | 0.20 | 88 | 992.5 |
| 20260904213504 | 51 | 43 | 0.0 | 1.7 | 0.00 | 0.20 | 0.20 | 88 | 992.5 |
| 20260904213004 | 51 | 44 | 0.9 | 2.6 | 0.00 | 0.20 | 0.20 | 88 | 992.4 |
| 20260904212004 | 51 | 53 | 0.0 | 0.0 | 0.00 | 0.20 | 0.20 | 88 | 992.4 |
| 20260904211504 | 51 | 53 | 0.0 | 0.9 | 0.00 | 0.20 | 0.20 | 88 | 992.4 |
| 20260904211004 | 51 | 355 | 0.0 | 0.0 | 0.00 | 0.20 | 0.20 | 88 | 992.5 |
| 20260904210505 | 51 | 355 | 0.9 | 2.6 | 0.00 | 0.20 | 0.20 | 88 | 992.5 |
| 20260904210004 | 51 | 355 | 0.0 | 0.0 | 0.00 | 0.20 | 0.20 | 88 | 992.5 |
| 20260904205503 | 51 | 355 | 0.0 | 1.7 | 0.00 | 0.20 | 0.20 | 88 | 992.4 |
| 20260904205004 | 51 | 355 | 0.0 | 0.0 | 0.00 | 0.20 | 0.20 | 88 | 992.5 |
| 20260904204504 | 51 | 0 | 0.0 | 0.0 | 0.00 | 0.20 | 0.20 | 88 | 992.5 |
| 20260904204005 | 51 | 17 | 0.0 | 0.0 | 0.00 | 0.20 | 0.20 | 88 | 992.5 |
| 20260904203504 | 51 | 17 | 0.0 | 0.9 | 0.00 | 0.20 | 0.20 | 88 | 992.5 |
| 20260904203004 | 51 | 17 | 0.0 | 2.6 | 0.00 | 0.20 | 0.20 | 88 | 992.6 |
| 20260904202505 | 51 | 17 | 0.0 | 2.6 | 0.00 | 0.20 | 0.20 | 88 | 992.5 |
| 20260904202004 | 51 | 17 | 0.0 | 2.6 | 0.00 | 0.20 | 0.20 | 88 | 992.5 |
| 20260904201504 | 51 | 17 | 0.0 | 1.7 | 0.00 | 0.20 | 0.20 | 88 | 992.5 |
| 20260904201005 | 51 | 17 | 0.0 | 0.0 | 0.00 | 0.20 | 0.20 | 88 | 992.5 |
| 20260904195503 | 52 | 17 | 0.0 | 0.0 | 0.00 | 0.20 | 0.20 | 88 | 992.5 |
| 20260904195005 | 52 | 17 | 0.0 | 0.0 | 0.00 | 0.20 | 0.20 | 89 | 992.6 |
| 20260904194504 | 52 | 17 | 0.0 | 0.0 | 0.00 | 0.20 | 0.20 | 89 | 992.6 |
| 20260904194003 | 52 | 17 | 0.0 | 0.0 | 0.00 | 0.20 | 0.20 | 89 | 992.5 |
| 20260904193504 | 52 | 17 | 0.0 | 2.6 | 0.00 | 0.20 | 0.20 | 89 | 992.6 |
| 20260904193004 | 52 | 32 | 0.0 | 0.0 | 0.00 | 0.20 | 0.20 | 89 | 992.5 |
| 20260904192504 | 52 | 32 | 0.0 | 0.0 | 0.00 | 0.20 | 0.20 | 89 | 992.6 |
| 20260904192004 | 52 | 32 | 0.0 | 1.7 | 0.00 | 0.20 | 0.20 | 89 | 992.6 |
| 20260904191504 | 52 | 34 | 0.0 | 1.7 | 0.00 | 0.20 | 0.20 | 89 | 992.6 |
| 20260904191003 | 52 | 344 | 0.9 | 2.6 | 0.00 | 0.20 | 0.20 | 89 | 992.6 |
| 20260904190504 | 52 | 30 | 0.0 | 0.0 | 0.00 | 0.20 | 0.20 | 89 | 992.6 |
| 20260904190004 | 52 | 30 | 0.0 | 0.0 | 0.00 | 0.20 | 0.20 | 89 | 992.6 |
| 20260904185504 | 52 | 30 | 0.0 | 0.0 | 0.00 | 0.20 | 0.20 | 89 | 992.6 |
| 20260904184004 | 52 | 30 | 0.0 | 0.0 | 0.00 | 0.20 | 0.20 | 89 | 992.7 |
| 20260904183504 | 52 | 30 | 0.0 | 0.0 | 0.00 | 0.20 | 0.20 | 89 | 992.7 |
| 20260904183004 | 52 | 30 | 0.0 | 0.0 | 0.00 | 0.20 | 0.20 | 89 | 992.6 |
| 20260904182004 | 52 | 30 | 0.9 | 2.6 | 0.00 | 0.20 | 0.20 | 89 | 992.7 |
| 20260904181504 | 52 | 30 | 0.9 | 2.6 | 0.00 | 0.20 | 0.20 | 89 | 992.7 |
| 20260904181003 | 53 | 30 | 0.0 | 0.0 | 0.00 | 0.20 | 0.20 | 89 | 992.7 |
| 20260904180504 | 53 | 30 | 0.0 | 0.9 | 0.00 | 0.20 | 0.20 | 89 | 992.7 |
| 20260904175503 | 53 | 356 | 0.9 | 2.6 | 0.00 | 0.20 | 0.20 | 89 | 992.6 |
| 20260904175004 | 53 | 0 | 0.9 | 6.1 | 0.00 | 0.20 | 0.20 | 89 | 992.5 |
| 20260904174504 | 53 | 336 | 0.9 | 2.6 | 0.00 | 0.20 | 0.20 | 89 | 992.5 |
| 20260904174003 | 53 | 351 | 0.0 | 0.0 | 0.00 | 0.20 | 0.20 | 89 | 992.5 |
| 20260904173504 | 53 | 351 | 0.0 | 0.0 | 0.00 | 0.20 | 0.20 | 89 | 992.5 |
| 20260904173004 | 53 | 351 | 0.0 | 0.0 | 0.00 | 0.20 | 0.20 | 89 | 992.5 |
| 20260904172504 | 53 | 351 | 0.0 | 0.0 | 0.00 | 0.20 | 0.20 | 89 | 992.5 |
| 20260904172004 | 53 | 351 | 0.0 | 0.0 | 0.00 | 0.20 | 0.20 | 89 | 992.4 |
| 20260904171504 | 53 | 351 | 0.0 | 0.9 | 0.00 | 0.20 | 0.20 | 89 | 992.4 |
| 20260904171004 | 53 | 351 | 0.0 | 0.0 | 0.00 | 0.20 | 0.20 | 89 | 992.4 |
| 20260904170504 | 53 | 351 | 0.0 | 0.0 | 0.00 | 0.20 | 0.20 | 89 | 992.4 |
| 20260904170004 | 53 | 351 | 0.0 | 0.0 | 0.00 | 0.20 | 0.20 | 89 | 992.4 |
| 20260904165504 | 53 | 351 | 0.0 | 0.0 | 0.00 | 0.20 | 0.20 | 89 | 992.4 |
| 20260904165004 | 54 | 351 | 0.0 | 0.0 | 0.00 | 0.20 | 0.20 | 89 | 992.4 |
| 20260904164504 | 54 | 351 | 0.0 | 0.9 | 0.00 | 0.20 | 0.20 | 88 | 992.4 |
| 20260904164004 | 54 | 351 | 0.9 | 2.6 | 0.00 | 0.20 | 0.20 | 89 | 992.4 |
| 20260904163504 | 54 | 351 | 0.0 | 0.0 | 0.00 | 0.20 | 0.20 | 89 | 992.4 |
| 20260904163004 | 54 | 351 | 0.0 | 0.9 | 0.00 | 0.20 | 0.20 | 89 | 992.4 |
| 20260904162504 | 54 | 351 | 0.0 | 0.0 | 0.00 | 0.20 | 0.20 | 89 | 992.4 |
| 20260904161504 | 54 | 351 | 0.0 | 0.9 | 0.00 | 0.20 | 0.20 | 89 | 992.4 |
| 20260904161004 | 55 | 348 | 0.0 | 0.9 | 0.00 | 0.20 | 0.20 | 89 | 992.4 |
| 20260904155503 | 55 | 345 | 0.9 | 2.6 | 0.01 | 0.20 | 0.20 | 89 | 992.4 |
| 20260904154505 | 55 | 331 | 0.0 | 0.9 | 0.02 | 0.20 | 0.20 | 89 | 992.4 |
| 20260904154003 | 55 | 331 | 0.0 | 0.0 | 0.02 | 0.20 | 0.20 | 89 | 992.4 |
| 20260904153004 | 54 | 331 | 0.0 | 0.0 | 0.02 | 0.20 | 0.20 | 89 | 992.4 |
| 20260904152504 | 54 | 331 | 0.0 | 0.0 | 0.02 | 0.20 | 0.20 | 89 | 992.4 |
| 20260904151004 | 54 | 331 | 0.0 | 0.0 | 0.02 | 0.20 | 0.20 | 89 | 992.4 |
| 20260904150504 | 54 | 331 | 0.0 | 2.6 | 0.02 | 0.20 | 0.20 | 89 | 992.4 |
| 20260904150004 | 55 | 330 | 0.0 | 2.6 | 0.02 | 0.20 | 0.20 | 89 | 992.4 |
| 20260904145504 | 55 | 313 | 0.0 | 0.0 | 0.01 | 0.19 | 0.19 | 89 | 992.4 |
| 20260904145004 | 55 | 313 | 1.7 | 2.6 | 0.00 | 0.18 | 0.18 | 89 | 992.5 |
| 20260904144504 | 55 | 315 | 0.9 | 2.6 | 0.01 | 0.18 | 0.18 | 89 | 992.5 |
| 20260904144004 | 55 | 334 | 1.7 | 4.3 | 0.01 | 0.18 | 0.18 | 89 | 992.5 |
| 20260904143504 | 55 | 16 | 0.0 | 2.6 | 0.01 | 0.18 | 0.18 | 89 | 992.5 |
| 20260904143004 | 55 | 21 | 0.0 | 2.6 | 0.01 | 0.18 | 0.18 | 89 | 992.5 |
| 20260904142004 | 55 | 23 | 0.0 | 0.0 | 0.01 | 0.18 | 0.18 | 89 | 992.5 |
| 20260904141504 | 55 | 23 | 0.0 | 0.0 | 0.01 | 0.18 | 0.18 | 89 | 992.6 |
| 20260904140004 | 56 | 23 | 0.0 | 1.7 | 0.01 | 0.18 | 0.18 | 89 | 992.7 |
| 20260904135504 | 56 | 23 | 0.0 | 1.7 | 0.01 | 0.18 | 0.18 | 88 | 992.7 |
| 20260904135004 | 56 | 26 | 0.0 | 0.9 | 0.01 | 0.18 | 0.18 | 89 | 992.7 |
| 20260904134504 | 56 | 26 | 0.0 | 0.0 | 0.00 | 0.17 | 0.17 | 88 | 992.7 |
| 20260904134004 | 57 | 26 | 0.0 | 0.0 | 0.00 | 0.17 | 0.17 | 89 | 992.7 |
| 20260904133504 | 56 | 26 | 0.0 | 0.0 | 0.01 | 0.17 | 0.17 | 89 | 992.7 |
| 20260904133004 | 56 | 24 | 0.0 | 0.0 | 0.01 | 0.17 | 0.17 | 89 | 992.7 |
| 20260904132504 | 55 | 25 | 0.0 | 1.7 | 0.02 | 0.17 | 0.17 | 89 | 992.7 |
| 20260904132004 | 55 | 25 | 0.0 | 0.0 | 0.04 | 0.17 | 0.17 | 89 | 992.7 |
| 20260904131504 | 55 | 25 | 0.0 | 0.0 | 0.05 | 0.17 | 0.17 | 89 | 992.8 |
| 20260904131004 | 55 | 25 | 0.0 | 0.0 | 0.05 | 0.17 | 0.17 | 88 | 992.8 |
| 20260904130504 | 54 | 25 | 0.0 | 0.0 | 0.05 | 0.17 | 0.17 | 88 | 992.8 |
| 20260904130004 | 54 | 25 | 0.0 | 0.0 | 0.05 | 0.17 | 0.17 | 89 | 992.8 |
| 20260904125504 | 54 | 25 | 0.0 | 0.0 | 0.05 | 0.17 | 0.17 | 89 | 992.8 |
| 20260904125004 | 54 | 25 | 0.0 | 0.0 | 0.05 | 0.17 | 0.17 | 89 | 992.8 |
| 20260904124504 | 54 | 25 | 0.0 | 0.0 | 0.05 | 0.17 | 0.17 | 89 | 992.8 |
| 20260904124004 | 54 | 25 | 0.0 | 0.0 | 0.05 | 0.17 | 0.17 | 89 | 992.8 |
| 20260904123504 | 54 | 25 | 0.0 | 0.0 | 0.04 | 0.16 | 0.16 | 89 | 992.9 |
| 20260904123004 | 54 | 20 | 0.0 | 0.0 | 0.04 | 0.16 | 0.16 | 89 | 993.0 |
| 20260904122503 | 55 | 20 | 0.0 | 2.6 | 0.04 | 0.15 | 0.15 | 89 | 992.8 |
| 20260904122004 | 55 | 20 | 0.0 | 1.7 | 0.04 | 0.13 | 0.13 | 88 | 993.0 |
| 20260904121503 | 54 | 20 | 0.0 | 0.0 | 0.05 | 0.12 | 0.12 | 88 | 992.9 |
| 20260904121004 | 54 | 20 | 0.0 | 0.0 | 0.10 | 0.12 | 0.12 | 89 | 992.9 |
| 20260904120504 | 54 | 20 | 0.0 | 0.0 | 0.12 | 0.12 | 0.12 | 88 | 993.0 |
| 20260904120004 | 54 | 20 | 0.0 | 0.0 | 0.12 | 0.12 | 0.12 | 88 | 993.1 |
| 20260904115004 | 53 | 20 | 0.0 | 0.0 | 0.12 | 0.12 | 0.12 | 89 | 993.2 |
| 20260904114503 | 53 | 20 | 0.0 | 0.0 | 0.12 | 0.12 | 0.12 | 89 | 993.2 |
| 20260904114004 | 53 | 20 | 0.0 | 0.0 | 0.12 | 0.12 | 0.12 | 89 | 993.1 |
| 20260904113504 | 53 | 20 | 0.0 | 0.0 | 0.12 | 0.12 | 0.12 | 89 | 993.1 |
| 20260904113004 | 53 | 20 | 0.0 | 0.0 | 0.12 | 0.12 | 0.12 | 89 | 993.2 |
| 20260904112504 | 54 | 20 | 0.0 | 0.0 | 0.11 | 0.11 | 0.11 | 89 | 993.2 |
| 20260904112004 | 54 | 20 | 0.0 | 0.0 | 0.09 | 0.09 | 0.09 | 88 | 993.3 |
| 20260904111504 | 54 | 20 | 1.7 | 4.3 | 0.07 | 0.07 | 0.07 | 87 | 993.3 |
| 20260904110504 | 57 | 331 | 2.6 | 7.0 | 0.00 | 0.00 | 0.00 | 83 | 993.3 |
| 20260904110004 | 57 | 55 | 0.0 | 1.7 | 0.00 | 0.00 | 0.00 | 85 | 993.2 |
| 20260904105505 | 56 | 55 | 0.9 | 2.6 | 0.00 | 0.00 | 0.00 | 84 | 993.1 |
| 20260904105004 | 56 | 55 | 0.9 | 2.6 | 0.00 | 0.00 | 0.00 | 84 | 993.1 |
| 20260904104504 | 56 | 55 | 0.0 | 0.0 | 0.00 | 0.00 | 0.00 | 85 | 993.2 |
| 20260904104005 | 56 | 55 | 0.0 | 0.0 | 0.00 | 0.00 | 0.00 | 85 | 993.2 |
| 20260904103504 | 55 | 55 | 0.0 | 0.0 | 0.00 | 0.00 | 0.00 | 85 | 993.3 |
| 20260904103003 | 55 | 55 | 0.0 | 2.6 | 0.00 | 0.00 | 0.00 | 86 | 993.3 |
| 20260904102505 | 55 | 55 | 0.9 | 2.6 | 0.00 | 0.00 | 0.00 | 86 | 993.3 |
| 20260904102004 | 55 | 55 | 0.0 | 2.6 | 0.00 | 0.00 | 0.00 | 87 | 993.3 |
| 20260904101005 | 55 | 55 | 1.7 | 4.3 | 0.00 | 0.00 | 0.00 | 86 | 993.3 |
| 20260904100503 | 55 | 57 | 0.9 | 2.6 | 0.00 | 0.00 | 0.00 | 86 | 993.4 |
| 20260904095504 | 55 | 57 | 0.0 | 1.7 | 0.00 | 0.00 | 0.00 | 88 | 993.6 |
| 20260904095004 | 55 | 57 | 0.0 | 0.0 | 0.00 | 0.00 | 0.00 | 88 | 993.5 |
| 20260904094503 | 54 | 57 | 0.0 | 0.0 | 0.00 | 0.00 | 0.00 | 89 | 993.6 |
| 20260904094004 | 54 | 57 | 0.0 | 0.0 | 0.00 | 0.00 | 0.00 | 89 | 993.6 |
| 20260904093504 | 54 | 57 | 0.0 | 0.9 | 0.00 | 0.00 | 0.00 | 89 | 993.7 |
| 20260904093004 | 54 | 57 | 0.0 | 0.0 | 0.00 | 0.00 | 0.00 | 89 | 993.7 |
| 20260904092509 | 54 | 57 | 0.0 | 0.0 | 0.00 | 0.00 | 0.00 | 89 | 993.8 |
| 20260904092008 | 54 | 57 | 0.0 | 0.0 | 0.00 | 0.00 | 0.00 | 89 | 993.8 |
| 20260904091504 | 53 | 57 | 0.0 | 0.0 | 0.00 | 0.00 | 0.00 | 89 | 993.9 |
| 20260904091004 | 53 | 57 | 0.0 | 0.0 | 0.00 | 0.00 | 0.00 | 89 | 993.9 |
| 20260904090504 | 53 | 57 | 0.0 | 0.0 | 0.00 | 0.00 | 0.00 | 89 | 993.9 |
| 20260904090004 | 53 | 57 | 0.9 | 1.7 | 0.00 | 0.00 | 0.00 | 89 | 993.8 |
| 20260904085504 | 52 | 57 | 0.9 | 1.7 | 0.00 | 0.00 | 0.00 | 88 | 993.9 |
| 20260904085004 | 52 | 57 | 0.0 | 0.0 | 0.00 | 0.00 | 0.00 | 86 | 993.8 |
| 20260904084504 | 52 | 57 | 0.0 | 0.0 | 0.00 | 0.00 | 0.00 | 84 | 993.8 |
| 20260904084004 | 51 | 57 | 0.9 | 1.7 | 0.00 | 0.00 | 0.00 | 82 | 993.8 |